Simultaneous Nadir Overpasses (SNOs) Predictions

Prediction of SNOs between METOP-B and NOAA-19 Satellite Orbit:

Table of predicted SNOs for the next 14.0 days since TLE Epoch: 7/7/2017
Index Date (METOP-B) Time (METOP-B) Lat,Lon (METOP-B) SZA (METOP-B ) Date (NOAA-19) Time (NOAA-19) Lat,Lon (NOAA-19) SZA (NOAA-19 ) Distance(km) Time Diff (sec)
1 07/16/2017 21:38:03 77.37,-139.22 56.12 07/16/2017 21:36:59 77.37,-139.31 56.12 2.17 64
2 07/16/2017 22:28:45 -77.34, 27.98 123.91 07/16/2017 22:27:54 -77.37, 27.99 123.89 3.28 51
3 07/16/2017 23:19:25 77.35,-164.65 56.11 07/16/2017 23:19:00 77.35,-164.70 56.11 1.31 25
4 07/17/2017 00:10:07 -77.32, 2.55 123.92 07/17/2017 00:09:55 -77.35, 2.59 123.89 3.12 12
5 07/17/2017 01:00:47 77.33, 169.92 56.10 07/17/2017 01:01:01 77.33, 169.90 56.10 0.48 14
6 07/17/2017 01:51:29 -77.30, -22.87 123.93 07/17/2017 01:51:56 -77.32, -22.81 123.90 3.14 27
7 07/17/2017 02:42:09 77.31, 144.49 56.09 07/17/2017 02:43:02 77.30, 144.51 56.09 0.36 53
8 07/17/2017 03:32:50 -77.32, -48.11 123.89 07/17/2017 03:33:57 -77.30, -48.20 123.91 3.26 67




NCC Satellite Simultaneous Nadir Overpasses (SNOs) Prediction Service
